Погода Улеты

Хотите узнать прогноз погоды Улеты? Тогда Вам сюда: Погода Улеты

Поиск расширенной информации на нашем сайте:

Полезная информация:

Новости сайта



02.01.2020
Опубликован Долгосрочный прогноз погоды по городам России и ближнего зарубежья на январь 2020 года.
Карты: Прогноз на январь и февраль 2020 года, Сравнение прогнозируемой аномалии приземной температуры воздуха на январь 2020 года по разным моделям.




Погода Улеты - сегодня

Время (UTC), дата Ветер
(°,м/с) 
Видим.   Явления Облачность Т
(°С)
Тd
(°С)
f(%) Тe
(°С)
Pmin
(гПа)
dP
(гПа)
Po
(мм)
O2
(г/м3)
Тmin Tmax R s Состояние
почвы
00 24.11.20 270 (З) 20000 м    10/8 1000 м кучево-дожд., средняя, верхняя 
[Cb cap|Ac trans|Ci ing]
-2 -6.6 71 -4  1025.2  0.6  701  285  -2.3      равномерный
сухой снег
100% 
03 24.11.20 310 (СЗ) 20000 м  {ливн. осадки}  8/6 1000 м кучево-дожд., средняя, верхняя 
[Cb cap|Ac trans|Ci ing]
-2 -8.6 61 -5  1026.8  1.4  702  286  -2.5         
06 24.11.20 330 (СЗ) 20000 м  {ливн. осадки}  8/5 1000 м кучево-дожд., средняя, верхняя 
[Cb cap|Ac lent|Ci fib]
-1.7 -11.3 48 -4  1026.9  0.1  702  286           
09 24.11.20 300 (СЗ) 20000 м    8/4 1000 м кучево-дожд., средняя, верхняя 
[Cb cap|Ac trans|Ci ing]
-4 -10.4 61 -6  1029  1.3  703  288           
12 24.11.20 300 (СЗ) 50000 м    10/6 600 м кучево-дожд., средняя 
[Cb cap|Ac trans]
-5.6 -11.1 65 -7  1031.5  1.7  704  291    -1  0.0     
15 24.11.20 280 (З) 20000 м    9/8 600 м кучево-дожд., средняя 
[Cb cap|Ac trans]
-6.5 -13.2 59 -10  1033.5  1.5  705  292           
18 24.11.20 280 (З) 20000 м    3/1 1000 м верхняя 
[Sc|Ci ing]
-10.5 -15.3 68 -14  1036.3  1.2  706  297           
21 24.11.20 тихо ()   н/о    н/о 
-13.5 -17.2 74 -14  1038.9  1.2  707  301           
00 25.11.20 130 (ЮВ) 20000 м    ясно 
-17.1 -19.6 81 -17  1042.4  1.9  709  306  -17.1      равномерный
сухой снег
100% 
03 25.11.20 270 (З) 20000 м    ясно 
-9 -17.7 49 -12  1040.2  0.9  709  297  -17.4         
06 25.11.20 250 (З) 20000 м    ясно 
-6.9 -19.5 36 -8  1038.9  -0.5  709  294           
09 25.11.20 тихо ()   20000 м    ясно 
-12.7 -20.1 54 -13  1041.3  0.2  709  301           
12 25.11.20 тихо ()   20000 м    ясно 
-17 -21 71 -17  1044.1  710  306    -6.3       
15 25.11.20 тихо ()   20000 м    ясно 
-18.6 -21.6 77 -19  1044.8  0.1  710  308           
18 25.11.20 тихо ()   20000 м    ясно 
-18.8 -21.5 79 -19  1044.7  0.1  710  309           
21 25.11.20 тихо ()   20000 м    ясно 
-19.2 -21.6 81 -19  1044.3  -0.5  709  309           
00 26.11.20 тихо ()   20000 м    3/3 1000 м кучево-дожд., верхняя 
[Cb cap|Ci fib]
-20.5 -23.1 80 -21  1045.6  0.7  710  311  -20.5      равномерный
сухой снег
100% 
03 26.11.20 060 (СВ) 20000 м    1/0 верхняя 
[Ci fib]
-13.2 -17.9 68 -13  1043  0.3  710  302  -20.6         
06 26.11.20 250 (З) 20000 м    1/0 верхняя 
[Ci ing]
-8 -15.7 54 -8  1039.6  -1.3  709  296           
09 26.11.20 тихо ()   20000 м    4/3 1000 м кучево-дожд., верхняя 
[Cb cap|Ci ing]
-12.6 -17.2 68 -13  1042.1  0.6  710  301           
12 26.11.20 тихо ()   20000 м    3/3 1000 м кучево-дожд., верхняя 
[Cb cap|Ci ing]
-17.1 -19.9 79 -17  1044.8  0.8  710  307    -7.8       
15 26.11.20 060 (СВ) 20000 м    8/3 1000 м кучево-дожд., средняя 
[Cb cap|Ac trans]
-15.3 -18.2 78 -15  1044.2  0.1  710  305           
18 26.11.20 240 (ЮЗ) 20000 м    10/3 1000 м кучево-дожд., средняя 
[Cb cap|Ac trans]
-11.5 -16.8 65 -15  1043.1  0.3  711  300           
21 26.11.20 210 (ЮЗ) 20000 м    3/0 верхняя 
[Ci ing]
-13.8 -17.3 75 -14  1043.6  -0.3  710  303           
00 27.11.20 210 (ЮЗ) 20000 м    3/0 средняя 
[Ac trans]
-14.5 -17.2 80 -17  1043.8  0.1  710  304  -17.5      равномерный
сухой снег
100% 
Время (UTC), дата Ветер
(°,м/с) 
Видим.   Явления Облачность Т
(°С)
Тd
(°С)
f(%) Тe
(°С)
Pmin
(гПа)
dP
(гПа)
Po
(мм)
O2
(г/м3)
Тmin Tmax R s Состояние
почвы

Для получения пояснительной информации подведите курсор к названию столбца.

ПОГОДА Улеты - архив

Всё, что Вы хотите узнать о погоде Улеты - удобно и подробно!

Выберите нужную дату (начиная с 1 января 2019* года) и нажмите кнопку "Найти".
Будут отображены архивные сводки погоды по пункту Улеты, начиная с указанной даты.


Отображать данные в формате CSV (для использования в таблицах Excel)


Внимание! Наш архив погоды предназначен исключительно для личного некоммерческого использования в познавательных целях. Если Вам необходимы официальные справки о состоянии погоды (для производственных, юридических, коммерческих и т.п. целей), обращайтесь в органы Росгидромета.

*Примечание: данная дата относится к архиву по метеостанциям СССР (Россия, СНГ, Балтия).
Архив по метеостанциям Зарубежной Европы и Азии (кроме Китая) хранится 10 дней, по другим регионам земного шара (Китай, Африка, Америка, Австралия, Океания) - 1 день.

Улеты - район местоположения метеостанции


Название, широта, долгота, высота метеостанции:
Улеты 51.3°ш. 112.5°д. 743 м над ур. моря [Российская Федерация]

Дополнительная информация

В oтличие oт бoльшинства пoгoдных сайтoв мы публикуем пoдрoбную метеoинфoрмацию в детальнoм прoфессиoнальнoм фoрмате.

Характеристики температуры и влажнoсти вoздуха измеряются на высoте 2 м в тени вдали oт зданий и деревьев.
Скoрoсть ветра измеряется на высoте 10 м (на урoвне рoста челoвека скoрoсть ветра ниже в 1.5-2 раза). Если метеoстанция нахoдится в гoрoде или в лесу, тo скoрoсть ветра занижена на 2-4 м/с пo сравнению с oткрытым местoм. Скoрoсть ветра над акватoриями крупных рек и oзёр, а также на вершинах хoлмoв на 2-5 м/с выше, чем в oбычных услoвиях.
Атмoсфернoе давление в разных тoчках местнoсти мoжет значительнo oтличаться oт давления на метеoстанции, в зависимoсти oт услoвий рельефа (при пoдъёме на 10 м давление пoнижается примернo на 1 мм рт.ст.).